This is the latest recevied weather packets stored in our database for station/object KF7SOJ. If no packets are shown the sender has not sent any weather packets the latest 10 day(s).
| Time | Temp. | Humidity | Pressure | Rain* | Wind** | Luminosity | Snow |
|---|---|---|---|---|---|---|---|
| 1787871711 | 31.67° C | 24% | 931.3 hPa | 0 mm | - | 11 W/m² | - |
| 1787871406 | 31.67° C | 25% | 930.6 hPa | 0 mm | - | 12 W/m² | - |
| 1787871102 | 31.11° C | 25% | 930.5 hPa | 0 mm | - | 12 W/m² | - |
| 1787870801 | 31.67° C | 25% | 930.5 hPa | 0 mm | - | 14 W/m² | - |
| 1787870496 | 31.67° C | 25% | 930.4 hPa | 0 mm | - | 18 W/m² | - |
| 1787870191 | 31.67° C | 26% | 930.4 hPa | 0 mm | - | 24 W/m² | - |
| 1787869886 | 31.67° C | 26% | 930.4 hPa | 0 mm | - | 31 W/m² | - |
| 1787869584 | 32.22° C | 25% | 930.7 hPa | 0 mm | - | 36 W/m² | - |
| 1787869280 | 32.22° C | 25% | 930.6 hPa | 0 mm | - | 39 W/m² | - |
| 1787868979 | 32.78° C | 24% | 930.7 hPa | 0 mm | - | 45 W/m² | - |
| 1787868679 | 32.78° C | 23% | 930.5 hPa | 0 mm | - | 54 W/m² | - |
| 1787868377 | 32.78° C | 24% | 930.4 hPa | 0 mm | - | 70 W/m² | - |
| 1787868072 | 32.78° C | 23% | 930.6 hPa | 0 mm | - | 106 W/m² | - |
| 1787867767 | 33.33° C | 23% | 930.6 hPa | 0 mm | - | 130 W/m² | - |
| 1787867462 | 33.33° C | 22% | 930.7 hPa | 0 mm | - | 146 W/m² | - |
| 1787867157 | 33.33° C | 22% | 930.7 hPa | 0 mm | - | 173 W/m² | - |
| 1787866853 | 33.89° C | 23% | 930.7 hPa | 0 mm | - | 191 W/m² | - |
| 1787866548 | 33.89° C | 22% | 930.8 hPa | 0 mm | - | 265 W/m² | - |
| 1787866246 | 33.89° C | 22% | 930.8 hPa | 0 mm | - | 646 W/m² | - |
| 1787865942 | 33.89° C | 23% | 930.6 hPa | 0 mm | - | 838 W/m² | - |
| 1787865637 | 33.89° C | 24% | 930.8 hPa | 0 mm | - | 388 W/m² | - |
| 1787865336 | 33.89° C | 22% | 930.9 hPa | 0 mm | - | 490 W/m² | - |
| 1787865032 | 33.89° C | 23% | 931 hPa | 0 mm | - | 415 W/m² | - |
| 1787864728 | 33.89° C | 22% | 931.3 hPa | 0 mm | - | 639 W/m² | - |
| 1787864434 | 33.89° C | 23% | 931.4 hPa | 0 mm | - | 658 W/m² | - |
* Rain latest hour (hover to see other rain measurements)
** Current wind speed in m/s (hover to see current wind gust speed)